EW0641 Weather Reports


Display with metric or nautical units.
time (UTC)temp
F
wind
direction
speed
MPH
gust
MPH
rain 1hr
in
rain 24hr
in
rain mn
in
humidity
%
barometer
mb
20260901091550 77 217 0.0 0.0 0.00 0.00 0.00 88 1012.7
20260901090049 77 217 0.0 0.0 0.00 0.00 0.00 87 1012.6
20260901084605 77 217 0.0 0.0 0.00 0.00 0.00 88 1012.5
20260901083050 77 217 0.0 0.0 0.00 0.00 0.00 88 1012.5
20260901081545 77 217 0.0 0.0 0.00 0.00 0.00 88 1012.4
20260901080044 77 217 0.0 0.0 0.00 0.00 0.00 88 1012.4
20260901074543 77 217 0.0 0.0 0.00 0.00 0.00 88 1012.4
20260901073042 77 217 0.0 0.0 0.00 0.00 0.00 87 1012.5
20260901071541 77 217 0.0 2.0 0.00 0.00 0.00 87 1012.4
20260901070040 77 217 0.0 0.0 0.00 0.00 0.00 86 1012.4
20260901064541 78 217 0.0 0.0 0.00 0.00 0.00 86 1012.5
20260901063040 78 217 0.0 0.0 0.00 0.00 0.00 86 1012.6
20260901061548 78 216 0.0 6.0 0.00 0.00 0.00 86 1012.7
20260901060043 78 234 0.0 3.0 0.00 0.00 0.00 85 1012.8
20260901054536 78 234 0.0 0.0 0.00 0.00 0.00 85 1012.9
20260901053044 78 229 0.0 0.0 0.00 0.00 0.00 85 1012.8
20260901051539 78 213 0.0 0.0 0.00 0.00 0.00 85 1012.8
20260901050033 78 212 0.0 0.0 0.00 0.00 0.00 85 1012.9
20260901044534 77 212 0.0 3.0 0.00 0.00 0.00 85 1012.7
20260901043032 77 219 0.0 0.0 0.00 0.00 0.00 86 1012.7
20260901041527 76 219 0.0 0.0 0.00 0.00 0.00 87 1012.8
20260901040027 75 219 0.0 0.0 0.00 0.00 0.00 87 1013.0
20260901034530 75 219 0.0 0.0 0.00 0.00 0.00 86 1012.9
20260901033023 75 219 0.0 0.0 0.00 0.00 0.00 86 1013.1
20260901031542 75 219 0.0 0.0 0.00 0.00 0.00 85 1013.2
20260901030024 75 219 0.0 0.0 0.00 0.00 0.00 84 1012.9
20260901024526 75 219 0.0 0.0 0.00 0.00 0.00 84 1013.2
20260901023024 75 219 0.0 0.0 0.00 0.00 0.00 84 1013.2
20260901021520 75 219 0.0 0.0 0.00 0.00 0.00 85 1013.2
20260901020020 74 219 0.0 0.0 0.00 0.00 0.00 86 1013.1
20260901014519 74 219 0.0 0.0 0.00 0.00 0.00 86 1013.3
20260901013020 74 219 0.0 0.0 0.00 0.00 0.00 87 1013.3
20260901011518 74 219 0.0 4.0 0.00 0.00 0.00 88 1013.2
20260901010032 74 210 0.0 5.0 0.00 0.00 0.00 88 1012.8
20260901004517 74 235 0.0 5.0 0.00 0.00 0.00 87 1012.6
20260901003017 75 134 0.0 0.0 0.00 0.00 0.00 86 1012.8
20260901001519 76 217 0.0 0.0 0.00 0.00 0.00 85 1012.7
20260901000015 76 220 0.0 5.0 0.00 0.00 0.00 84 1013.0
20260831234513 77 219 0.0 5.0 0.00 0.00 0.00 85 1012.9
20260831233015 77 221 0.0 0.0 0.00 0.00 0.00 85 1013.2
20260831231513 77 239 0.0 7.0 0.00 0.00 0.00 84 1013.3
20260831230013 77 214 0.0 5.0 0.00 0.00 0.00 84 1013.4
20260831224510 77 221 0.0 0.0 0.00 0.00 0.00 85 1013.7
20260831223016 78 221 0.0 10.0 0.00 0.00 0.00 85 1013.6
20260831221522 79 206 0.0 9.0 0.00 0.00 0.00 83 1013.9
20260831220106 80 240 3.0 10.0 0.00 0.00 0.00 80 1014.0
20260831214505 81 222 0.0 6.0 0.00 0.00 0.00 76 1014.2
20260831213005 82 227 0.0 8.0 0.00 0.00 0.00 72 1014.2
20260831211503 83 248 5.0 10.0 0.00 0.00 0.00 73 1014.3
20260831210006 82 105 0.0 0.0 0.00 0.00 0.00 72 1014.7
20260831204503 83 126 0.0 0.0 0.00 0.00 0.00 71 1014.8
20260831203003 84 150 0.0 0.0 0.00 0.00 0.00 70 1014.6
20260831201602 84 155 0.0 3.0 0.00 0.00 0.00 70 1014.5
20260831200100 85 150 0.0 0.0 0.00 0.00 0.00 68 1014.8
20260831194658 85 219 0.0 0.0 0.00 0.00 0.00 66 1014.8
20260831193058 85 219 0.0 0.0 0.00 0.00 0.00 64 1015.3
20260831191554 84 220 0.0 0.0 0.00 0.00 0.00 66 1015.3
20260831190105 84 221 0.0 5.0 0.00 0.00 0.00 68 1015.1
20260831184604 83 215 0.0 3.0 0.00 0.00 0.00 70 1014.8
20260831183054 84 240 0.0 0.0 0.00 0.00 0.00 66 1015.0
20260831181550 83 240 0.0 0.0 0.00 0.00 0.00 73 1015.1
20260831180046 81 245 0.0 0.0 0.00 0.00 0.00 76 1015.2
20260831174551 80 245 0.0 2.0 0.00 0.00 0.00 78 1014.9
20260831173046 80 279 0.0 0.0 0.00 0.00 0.00 78 1015.0
20260831171547 80 279 0.0 0.0 0.00 0.00 0.00 76 1015.4
20260831170125 80 272 0.0 0.0 0.00 0.00 0.00 76 1016.1
20260831164545 81 251 0.0 0.0 0.00 0.00 0.00 75 1016.4
20260831163044 81 315 0.0 0.0 0.00 0.00 0.00 73 1016.3
20260831161541 81 243 0.0 0.0 0.00 0.00 0.00 75 1016.4
20260831160038 80 230 0.0 0.0 0.00 0.00 0.00 80 1016.4
20260831154534 78 230 0.0 0.0 0.00 0.06 0.00 82 1016.3
20260831153031 77 230 0.0 0.0 0.00 0.06 0.00 83 1015.9
20260831151529 77 227 0.0 0.0 0.00 0.06 0.00 83 1015.8
20260831150030 77 226 0.0 3.0 0.00 0.06 0.00 83 1015.8
20260831144532 77 226 2.0 6.0 0.00 0.11 0.00 83 1015.8
20260831143026 76 224 0.0 1.0 0.00 0.11 0.00 85 1015.7
20260831141524 76 225 1.0 5.0 0.00 0.11 0.00 85 1015.6
20260831140026 75 226 0.0 5.0 0.00 0.11 0.00 86 1015.5
20260831134521 75 246 0.0 3.0 0.00 0.14 0.00 86 1015.5
20260831133025 74 232 0.0 0.0 0.00 0.14 0.00 87 1015.6
20260831131517 74 232 0.0 4.0 0.00 0.14 0.00 89 1015.5
20260831130016 73 222 0.0 0.0 0.00 0.14 0.00 89 1015.5
20260831124517 73 222 0.0 0.0 0.00 0.14 0.00 90 1015.2
20260831123016 73 222 0.0 0.0 0.00 0.14 0.00 89 1015.2
20260831121518 73 222 0.0 0.0 0.00 0.14 0.00 88 1015.4
20260831120022 74 222 0.0 0.0 0.00 0.14 0.00 87 1015.5
20260831114515 73 222 0.0 0.0 0.00 0.14 0.00 87 1015.4
20260831113014 73 222 0.0 0.0 0.00 0.14 0.00 87 1015.4
20260831111525 73 222 0.0 0.0 0.00 0.14 0.00 87 1015.3
20260831110012 73 222 0.0 0.0 0.00 0.14 0.00 88 1015.3
20260831104517 73 222 0.0 0.0 0.00 0.15 0.00 88 1015.2
20260831103029 73 222 0.0 0.0 0.00 0.15 0.00 88 1015.3
20260831101511 73 222 0.0 0.0 0.00 0.15 0.00 88 1015.2
20260831100012 72 222 0.0 0.0 0.00 0.15 0.00 89 1015.1
20260831094522 72 222 0.0 0.0 0.00 0.15 0.00 89 1015.2
20260831093010 72 222 0.0 0.0 0.00 0.15 0.00 89 1015.3